Time,TemperatureF,DewpointF,PressureIn,WindDirection,WindDirectionDegrees,WindSpeedMPH,WindSpeedGustMPH,Humidity,HourlyPrecipIn,Conditions,Clouds,dailyrainin,SoftwareType,DateUTC
2013-01-07 00:12:00,31.0,29.0,-100.00,NNE,30,0.0,2.0,92,-99.99,,,-99.99,,2013-01-07 05:12:00,
2013-01-07 00:22:00,30.0,28.0,-100.00,West,270,0.0,2.0,92,-99.99,,,-99.99,,2013-01-07 05:22:00,
2013-01-07 00:33:00,30.0,28.0,-100.00,West,260,0.0,2.0,92,-99.99,,,-99.99,,2013-01-07 05:33:00,
2013-01-07 00:43:00,30.0,28.0,-100.00,WSW,255,1.0,2.0,92,-99.99,,,-99.99,,2013-01-07 05:43:00,
2013-01-07 00:52:00,30.0,28.0,-100.00,North,10,1.0,2.0,92,-99.99,,,-99.99,,2013-01-07 05:52:00,
2013-01-07 01:02:00,29.0,27.0,-100.00,NNW,335,0.0,3.0,92,-99.99,,,-99.99,,2013-01-07 06:02:00,
2013-01-07 01:12:00,29.0,27.0,-100.00,NNW,335,1.0,3.0,92,-99.99,,,-99.99,,2013-01-07 06:12:00,
2013-01-07 01:22:00,29.0,27.0,-100.00,NNW,345,1.0,2.0,93,-99.99,,,-99.99,,2013-01-07 06:22:00,
2013-01-07 01:32:00,29.0,27.0,-100.00,NW,325,0.0,3.0,93,-99.99,,,-99.99,,2013-01-07 06:32:00,
2013-01-07 01:42:00,29.0,27.0,-100.00,WSW,250,0.0,2.0,93,-99.99,,,-99.99,,2013-01-07 06:42:00,
2013-01-07 01:52:00,29.0,27.0,-100.00,WNW,285,1.0,5.0,93,-99.99,,,-99.99,,2013-01-07 06:52:00,
2013-01-07 02:02:00,28.0,26.0,-100.00,NNE,20,0.0,3.0,93,-99.99,,,-99.99,,2013-01-07 07:02:00,
2013-01-07 02:12:00,28.0,26.0,-100.00,NNW,340,0.0,3.0,93,-99.99,,,-99.99,,2013-01-07 07:12:00,
2013-01-07 02:22:00,28.0,26.0,-100.00,NNW,345,2.0,5.0,93,-99.99,,,-99.99,,2013-01-07 07:22:00,
2013-01-07 02:33:00,28.0,26.0,-100.00,NNW,345,2.0,5.0,93,-99.99,,,-99.99,,2013-01-07 07:33:00,
2013-01-07 03:43:00,27.0,26.0,-100.00,NNW,340,1.0,2.0,93,-99.99,,,-99.99,,2013-01-07 08:43:00,
2013-01-07 03:52:00,27.0,26.0,-100.00,NW,305,1.0,2.0,93,-99.99,,,-99.99,,2013-01-07 08:52:00,
2013-01-07 04:02:00,27.0,25.0,-100.00,NNW,345,1.0,2.0,94,-99.99,,,-99.99,,2013-01-07 09:02:00,
2013-01-07 04:12:00,27.0,25.0,-100.00,WNW,295,0.0,1.0,94,-99.99,,,-99.99,,2013-01-07 09:12:00,
2013-01-07 04:23:00,27.0,25.0,-100.00,NNW,335,1.0,3.0,94,-99.99,,,-99.99,,2013-01-07 09:23:00,
2013-01-07 04:32:00,27.0,25.0,-100.00,North,350,1.0,2.0,94,-99.99,,,-99.99,,2013-01-07 09:32:00,
2013-01-07 04:42:00,27.0,25.0,-100.00,WNW,290,1.0,3.0,94,-99.99,,,-99.99,,2013-01-07 09:42:00,
2013-01-07 04:52:00,27.0,25.0,-100.00,NNW,345,3.0,5.0,94,-99.99,,,-99.99,,2013-01-07 09:52:00,
2013-01-07 05:02:00,27.0,25.0,-100.00,NW,305,1.0,3.0,94,-99.99,,,-99.99,,2013-01-07 10:02:00,
2013-01-07 05:12:00,27.0,25.0,-100.00,NNW,335,1.0,3.0,94,-99.99,,,-99.99,,2013-01-07 10:12:00,
2013-01-07 08:33:00,26.0,25.0,-100.00,SSW,210,1.0,5.0,94,-99.99,,,-99.99,,2013-01-07 13:33:00,
2013-01-07 08:43:00,27.0,25.0,-100.00,WNW,285,1.0,3.0,94,-99.99,,,-99.99,,2013-01-07 13:43:00,
2013-01-07 08:53:00,27.0,26.0,-100.00,NNW,345,2.0,5.0,94,-99.99,,,-99.99,,2013-01-07 13:53:00,
2013-01-07 09:03:00,28.0,27.0,-100.00,NW,315,1.0,5.0,94,-99.99,,,-99.99,,2013-01-07 14:03:00,
2013-01-07 09:13:00,28.0,27.0,-100.00,NW,310,2.0,6.0,94,-99.99,,,-99.99,,2013-01-07 14:13:00,
2013-01-07 09:23:00,29.0,28.0,-100.00,North,350,2.0,8.0,93,-99.99,,,-99.99,,2013-01-07 14:23:00,
2013-01-07 09:33:00,30.0,28.0,-100.00,NW,320,2.0,8.0,92,-99.99,,,-99.99,,2013-01-07 14:33:00,
2013-01-07 09:43:00,31.0,29.0,-100.00,NNW,345,2.0,7.0,92,-99.99,,,-99.99,,2013-01-07 14:43:00,
2013-01-07 09:53:00,33.0,30.0,-100.00,NNW,335,5.0,8.0,90,-99.99,,,-99.99,,2013-01-07 14:53:00,
2013-01-07 10:03:00,34.0,31.0,-100.00,NW,325,5.0,10.0,87,-99.99,,,-99.99,,2013-01-07 15:03:00,
2013-01-07 10:12:00,36.0,30.0,-100.00,NNW,345,8.0,13.0,78,-99.99,,,-99.99,,2013-01-07 15:12:00,
2013-01-07 12:12:00,39.0,9.0,-100.00,NNW,340,12.0,18.0,28,-99.99,,,-99.99,,2013-01-07 17:12:00,
2013-01-07 12:23:00,40.0,10.0,-100.00,NNW,340,12.0,18.0,29,-99.99,,,-99.99,,2013-01-07 17:23:00,
2013-01-07 12:33:00,40.0,10.0,-100.00,North,5,12.0,17.0,29,-99.99,,,-99.99,,2013-01-07 17:33:00,
2013-01-07 12:42:00,39.0,10.0,-100.00,NNW,345,10.0,16.0,29,-99.99,,,-99.99,,2013-01-07 17:42:00,
2013-01-07 12:53:00,40.0,10.0,-100.00,North,5,7.0,17.0,28,-99.99,,,-99.99,,2013-01-07 17:53:00,
2013-01-07 13:03:00,39.0,9.0,-100.00,NNW,340,15.0,20.0,28,-99.99,,,-99.99,,2013-01-07 18:03:00,
2013-01-07 13:13:00,40.0,8.0,-100.00,NNW,340,9.0,17.0,27,-99.99,,,-99.99,,2013-01-07 18:13:00,
2013-01-07 13:23:00,40.0,7.0,-100.00,North,5,8.0,16.0,25,-99.99,,,-99.99,,2013-01-07 18:23:00,
2013-01-07 13:33:00,40.0,7.0,-100.00,NNW,340,9.0,16.0,25,-99.99,,,-99.99,,2013-01-07 18:33:00,
2013-01-07 13:43:00,40.0,7.0,-100.00,NNW,335,8.0,18.0,25,-99.99,,,-99.99,,2013-01-07 18:43:00,
2013-01-07 13:52:00,40.0,6.0,-100.00,NNW,340,6.0,14.0,24,-99.99,,,-99.99,,2013-01-07 18:52:00,
2013-01-07 14:03:00,39.0,6.0,-100.00,NNW,335,9.0,15.0,25,-99.99,,,-99.99,,2013-01-07 19:03:00,
2013-01-07 14:12:00,40.0,7.0,-100.00,NNE,20,9.0,17.0,25,-99.99,,,-99.99,,2013-01-07 19:12:00,
2013-01-07 14:23:00,40.0,5.0,-100.00,NNW,345,5.0,12.0,23,-99.99,,,-99.99,,2013-01-07 19:23:00,
2013-01-07 14:33:00,40.0,6.0,-100.00,North,5,8.0,14.0,24,-99.99,,,-99.99,,2013-01-07 19:33:00,
2013-01-07 14:43:00,40.0,6.0,-100.00,North,0,6.0,13.0,24,-99.99,,,-99.99,,2013-01-07 19:43:00,
2013-01-07 14:53:00,39.0,5.0,-100.00,North,10,6.0,9.0,23,-99.99,,,-99.99,,2013-01-07 19:53:00,
2013-01-07 15:03:00,39.0,5.0,-100.00,NNW,340,7.0,13.0,23,-99.99,,,-99.99,,2013-01-07 20:03:00,
2013-01-07 15:13:00,40.0,5.0,-100.00,North,5,5.0,8.0,23,-99.99,,,-99.99,,2013-01-07 20:13:00,
2013-01-07 15:23:00,39.0,6.0,-100.00,NNW,335,3.0,10.0,25,-99.99,,,-99.99,,2013-01-07 20:23:00,
2013-01-07 15:33:00,39.0,6.0,-100.00,NNW,335,3.0,10.0,25,-99.99,,,-99.99,,2013-01-07 20:33:00,
2013-01-07 15:43:00,39.0,10.0,-100.00,NNW,335,6.0,10.0,29,-99.99,,,-99.99,,2013-01-07 20:43:00,
2013-01-07 15:53:00,39.0,13.0,-100.00,North,355,2.0,7.0,34,-99.99,,,-99.99,,2013-01-07 20:53:00,
2013-01-07 16:03:00,39.0,14.0,-100.00,NNE,25,2.0,7.0,36,-99.99,,,-99.99,,2013-01-07 21:03:00,
2013-01-07 16:12:00,38.0,14.0,-100.00,SE,125,2.0,6.0,37,-99.99,,,-99.99,,2013-01-07 21:12:00,
2013-01-07 16:23:00,38.0,15.0,-100.00,NW,325,2.0,7.0,38,-99.99,,,-99.99,,2013-01-07 21:23:00,
2013-01-07 16:30:00,36.0,20.0,-100.00,South,180,1.0,5.0,53,-99.99,,,-99.99,,2013-01-07 21:30:00,
2013-01-07 16:33:00,38.0,14.0,-100.00,ESE,115,2.0,6.0,37,-99.99,,,-99.99,,2013-01-07 21:33:00,
2013-01-07 16:43:00,37.0,19.0,-100.00,SE,125,2.0,7.0,47,-99.99,,,-99.99,,2013-01-07 21:43:00,
2013-01-07 16:53:00,36.0,20.0,-100.00,NNW,345,1.0,5.0,50,-99.99,,,-99.99,,2013-01-07 21:53:00,
2013-01-07 17:03:00,36.0,20.0,-100.00,NNW,345,1.0,5.0,50,-99.99,,,-99.99,,2013-01-07 22:03:00,
2013-01-07 17:12:00,36.0,20.0,-100.00,South,180,1.0,5.0,53,-99.99,,,-99.99,,2013-01-07 22:12:00,
2013-01-07 17:23:00,36.0,20.0,-100.00,South,180,1.0,5.0,53,-99.99,,,-99.99,,2013-01-07 22:23:00,
2013-01-07 17:43:00,35.0,21.0,-100.00,North,355,2.0,6.0,57,-99.99,,,-99.99,,2013-01-07 22:43:00,
2013-01-07 17:53:00,34.0,21.0,-100.00,North,0,1.0,7.0,59,-99.99,,,-99.99,,2013-01-07 22:53:00,
2013-01-07 18:03:00,34.0,22.0,-100.00,SE,140,1.0,6.0,61,-99.99,,,-99.99,,2013-01-07 23:03:00,
2013-01-07 22:33:00,26.0,22.0,-100.00,West,260,0.0,1.0,87,-99.99,,,-99.99,,2013-01-08 03:33:00,
2013-01-07 22:43:00,26.0,22.0,-100.00,NE,35,0.0,3.0,87,-99.99,,,-99.99,,2013-01-08 03:43:00,
2013-01-07 22:53:00,26.0,22.0,-100.00,NNW,340,1.0,2.0,88,-99.99,,,-99.99,,2013-01-08 03:53:00,
2013-01-07 23:02:00,26.0,22.0,-100.00,NNW,340,1.0,2.0,88,-99.99,,,-99.99,,2013-01-08 04:02:00,
2013-01-07 23:12:00,25.0,22.0,-100.00,West,260,0.0,1.0,87,-99.99,,,-99.99,,2013-01-08 04:12:00,
2013-01-07 23:22:00,26.0,22.0,-100.00,SE,145,0.0,2.0,88,-99.99,,,-99.99,,2013-01-08 04:22:00,
2013-01-07 23:32:00,26.0,23.0,-100.00,NW,325,0.0,1.0,89,-99.99,,,-99.99,,2013-01-08 04:32:00,
2013-01-07 23:43:00,26.0,22.0,-100.00,SSW,200,0.0,1.0,88,-99.99,,,-99.99,,2013-01-08 04:43:00,
2013-01-07 23:52:00,25.0,22.0,-100.00,NW,325,0.0,2.0,89,-99.99,,,-99.99,,2013-01-08 04:52:00,